Regional Weather Roundup
Issued by NWS

Home | Current Version | Previous Version | Graphics & Text | Print | Product List | Glossary On
Versions: 1 2 3 4 5 6 7 8 9 10 11 12 13 14 15 16 17 18 19 20 21 22 23 24 25 26 27 28 29 30 31 32 33 34 35 36 37 38 39 40 41 42 43 44 45 46 47 48 49 50
000
ASUS44 KMEG 271500
RWRTN
TENNESSEE HOURLY STATE WEATHER ROUNDUP
NATIONAL WEATHER SERVICE MEMPHIS TN
1000 AM CDT MON MAR 27 2017

TNZ002-004-019-021-049-052-054-088>092-271600-
WEST TENNESSEE

CITY           SKY/WX    TMP DP  RH WIND       PRES   REMARKS
MEMPHIS INTL   CLOUDY    70  64  81 SW5       29.90R
NWS MEMPHIS      N/A     69 N/A N/A MISG        N/A
JACKSON        PTSUNNY   66  63  90 S7        29.92S
DYERSBURG      MOSUNNY   68  55  63 S9        29.91S
PARIS          MOSUNNY   61  57  88 S10       29.92S
$$

TNZ008-025-027-028-033-062-065-066-271600-
NORTH MIDDLE TENNESSEE

CITY           SKY/WX    TMP DP  RH WIND       PRES   REMARKS
NASHVILLE      PTSUNNY   69  60  73 S15G21    29.99R
CLARKSVILLE    CLOUDY    65  59  81 S10       29.93F
SMYRNA         CLOUDY    69  62  78 S13       30.00R
CROSSVILLE     PTSUNNY   66  57  72 SW9G17    30.06R
$$

TNZ061-075-076-078-094-096-097-271600-
SOUTH MIDDLE TENNESSEE

CITY           SKY/WX    TMP DP  RH WIND       PRES   REMARKS
TULLAHOMA      CLOUDY    64  61  88 S9        30.05R
WINCHESTER     PTSUNNY   70  61  73 SW8       30.04F
COLUMBIA       MOSUNNY   68  68 100 S9        29.97S
SHELBYVILLE    CLOUDY    68  63  83 S12       30.03S
$$

TNZ017-018-042-046-047-271600-
NORTHEAST TENNESSEE

CITY           SKY/WX    TMP DP  RH WIND       PRES   REMARKS
TRI CITIES     MOSUNNY   67  55  65 VRB5      30.09R
$$

TNZ012-013-036-069-073-074-271600-
CENTRAL EAST TENNESSEE

CITY           SKY/WX    TMP DP  RH WIND       PRES   REMARKS
KNOXVILLE      CLOUDY    66  59  78 SW14      30.06S
OAK RIDGE      CLOUDY    65  55  70 W3        30.07S
GATLINBURG     MOSUNNY   68  55  64 W8        30.06S
$$

TNZ083-085-099-271600-
SOUTHEAST TENNESSEE

CITY           SKY/WX    TMP DP  RH WIND       PRES   REMARKS
CHATTANOOGA    PTSUNNY   68  61  78 S8        30.06F
$$

SKY/WX REPORTED AS FAIR MEANS FEW OR NO CLOUDS BELOW
12 THOUSAND FEET.




USA.gov is the U.S. government's official web portal to all federal, state and local government web resources and services.